Bloomington, IN

11:35 PM EDT on June 22, 2017 (GMT -0400)
Monroe County

Weather History for KBMG - May, 2013

Change the Weather History Date:

Friday, May 24, 2013

  Actual Average Record
Temperature  
Mean Temperature 54 °F 65 °F  
Max Temperature 67 °F 76 °F 87 °F (2007)
Min Temperature 41 °F 54 °F 41 °F (2003)
Degree Days  
Heating Degree Days 11 3  
Month to date heating degree days 89 121  
Since 1 July heating degree days 5277 5235  
Cooling Degree Days 0 3  
Month to date cooling degree days 63 41  
Year to date cooling degree days 75 60  
Growing Degree Days 4 (Base 50)    
Moisture  
Dew Point 41 °F    
Average Humidity 64    
Maximum Humidity 96    
Minimum Humidity 32    
Precipitation  
Precipitation 0.00 in 0.15 in 0.62 in (2006)
Month to date precipitation 2.70 4.09  
Year to date precipitation 18.10 18.74  
Sea Level Pressure  
Sea Level Pressure 30.28 in    
Wind  
Wind Speed 5 mph (North)    
Max Wind Speed 13 mph    
Max Gust Speed 18 mph    
Visibility 10 miles    
Events      
T = Trace of Precipitation, MM = Missing Value Source: NWS Daily Summary

Daily Weather History Graph

Daily Weather History Graph

Search for Another Location

Airport or City:

Trip Planner

Search our weather history database for the weather conditions in past years. The results will help you decide how hot, cold, wet, or windy it might be!

Date:

Astronomy

May. 24, 2013 Rise Set
Actual Time 6:26 AM EDT 9:00 PM EDT
Civil Twilight 5:55 AM EDT 9:31 PM EDT
Nautical Twilight 5:16 AM EDT 10:10 PM EDT
Astronomical Twilight 4:33 AM EDT 10:53 PM EDT
Moon 8:42 PM EDT (5/24) 5:57 AM EDT (5/24)
Length of Visible Light 15h 36m
Length of Day
14h 34m
Full, 100% of the Moon is Illuminated
May 24
Full
May 25
Full
May 31
Last Quarter
Jun 8
New
Jun 16
First Quarter

Hourly Weather History & Observations

Time (EDT) Temp. Windchill Dew Point Humidity Pressure Visibility Wind Dir Wind Speed Gust Speed Precip Events Conditions
12:53 AM 48.9 °F - 43.0 °F 80% 30.17 in 10.0 mi Variable 6.9 mph - N/A   Overcast
1:53 AM 45.0 °F 39.7 °F 36.0 °F 71% 30.19 in 10.0 mi North 10.4 mph - N/A   Clear
2:53 AM 43.0 °F 38.8 °F 37.0 °F 80% 30.20 in 10.0 mi North 6.9 mph - N/A   Clear
3:53 AM 42.1 °F 37.7 °F 37.9 °F 85% 30.22 in 10.0 mi North 6.9 mph - N/A   Clear
4:34 AM 42.8 °F 37.5 °F 39.2 °F 87% 30.23 in 10.0 mi North 9.2 mph - N/A   Scattered Clouds
4:43 AM 42.8 °F 37.5 °F 39.2 °F 87% 30.23 in 10.0 mi North 9.2 mph - N/A   Mostly Cloudy
4:53 AM 43.0 °F 38.8 °F 41.0 °F 93% 30.23 in 10.0 mi North 6.9 mph - N/A   Overcast
5:13 AM 42.8 °F 38.6 °F 41.0 °F 93% 30.23 in 10.0 mi North 6.9 mph - N/A   Mostly Cloudy
5:32 AM 42.8 °F 39.3 °F 41.0 °F 93% 30.23 in 10.0 mi North 5.8 mph - N/A   Mostly Cloudy
5:48 AM 42.8 °F 41.1 °F 41.0 °F 93% 30.24 in 10.0 mi North 3.5 mph - N/A   Scattered Clouds
5:53 AM 43.0 °F 41.3 °F 41.0 °F 93% 30.24 in 10.0 mi Variable 3.5 mph - N/A   Partly Cloudy
6:53 AM 41.0 °F - 39.9 °F 96% 30.27 in 10.0 mi Calm Calm - N/A   Clear
7:14 AM 42.8 °F 39.3 °F 42.8 °F 100% 30.27 in 10.0 mi North 5.8 mph - N/A   Mostly Cloudy
7:53 AM 45.0 °F 39.7 °F 42.1 °F 90% 30.29 in 10.0 mi North 10.4 mph - N/A   Overcast
8:53 AM 46.0 °F 41.9 °F 42.1 °F 86% 30.32 in 10.0 mi North 8.1 mph - N/A   Overcast
9:49 AM 48.2 °F - 42.8 °F 82% 30.34 in 10.0 mi Variable 5.8 mph - N/A   Overcast
9:53 AM 48.0 °F - 43.0 °F 83% 30.35 in 10.0 mi North 6.9 mph - N/A   Mostly Cloudy
10:48 AM 53.6 °F - 44.6 °F 72% 30.35 in 10.0 mi NNE 8.1 mph - N/A   Scattered Clouds
10:53 AM 54.0 °F - 44.1 °F 69% 30.35 in 10.0 mi NNE 10.4 mph - N/A   Scattered Clouds
11:53 AM 55.0 °F - 42.1 °F 62% 30.37 in 10.0 mi Calm Calm - N/A   Partly Cloudy
12:53 PM 59.0 °F - 42.1 °F 53% 30.36 in 10.0 mi North 8.1 mph - N/A   Partly Cloudy
1:53 PM 62.1 °F - 42.1 °F 48% 30.35 in 10.0 mi NNE 8.1 mph - N/A   Clear
2:53 PM 64.0 °F - 39.9 °F 41% 30.34 in 10.0 mi North 5.8 mph - N/A   Clear
3:53 PM 64.0 °F - 37.0 °F 37% 30.33 in 10.0 mi Variable 6.9 mph 16.1 mph N/A   Clear
4:53 PM 66.0 °F - 36.0 °F 33% 30.32 in 10.0 mi Variable 4.6 mph - N/A   Clear
5:53 PM 66.0 °F - 36.0 °F 33% 30.31 in 10.0 mi North 6.9 mph - N/A   Clear
6:53 PM 66.0 °F - 36.0 °F 33% 30.28 in 10.0 mi NNE 5.8 mph - N/A   Clear
7:53 PM 64.0 °F - 37.9 °F 38% 30.28 in 10.0 mi North 4.6 mph - N/A   Clear
8:53 PM 57.0 °F - 43.0 °F 59% 30.27 in 10.0 mi Calm Calm - N/A   Clear
9:53 PM 52.0 °F - 46.0 °F 80% 30.29 in 10.0 mi Calm Calm - N/A   Clear
10:53 PM 48.0 °F - 45.0 °F 89% 30.31 in 10.0 mi Calm Calm - N/A   Clear
11:53 PM 48.0 °F - 44.1 °F 86% 30.32 in 10.0 mi Calm Calm - N/A   Clear